When you browse on this site, cookies collect data to enhance your experience and personalize the content and advertising you see.
Visit our Privacy Policy to learn more. By continuing to use the site, you agree to this use of cookies and data.
  • In Österreich
  • Länderverzeichnis
  • Für 7 Tage
  • Wassertemperatur
  • Satellitenkarten
  • Wetterkarte
  • News
  • Widgets
  • user-avatar
    Anmelden

    Stündliche Wetter Hobart

    Heute, 17 Juli, Mittwoch

    Zeit Temperatur Niederschläge Wind Luftdruck Luftfeuchtigkeit
    00:00 +9°C° 0 mm 3 m/S 743 mmHg 88%
    01:00 +10°C° 0 mm 3 m/S 743 mmHg 87%
    02:00 +9°C° 0 mm 3 m/S 742 mmHg 85%
    03:00 +8°C° 0 mm 4 m/S 742 mmHg 83%
    04:00 +8°C° 0 mm 4 m/S 741 mmHg 80%
    05:00 +8°C° 0 mm 4 m/S 741 mmHg 80%
    06:00 +8°C° 0 mm 4 m/S 740 mmHg 81%
    07:00 +8°C° 0 mm 4 m/S 740 mmHg 81%
    08:00 +8°C° 0 mm 4 m/S 739 mmHg 79%
    09:00 +10°C° 0 mm 4 m/S 738 mmHg 77%
    10:00 +10°C° 0 mm 4 m/S 737 mmHg 74%
    11:00 +10°C° 0.2 mm 4 m/S 736 mmHg 75%
    12:00 +9°C° 0.2 mm 5 m/S 735 mmHg 76%
    13:00 +9°C° 0.2 mm 5 m/S 735 mmHg 77%
    14:00 +8°C° 0.5 mm 6 m/S 735 mmHg 78%
    15:00 +8°C° 0.5 mm 6 m/S 735 mmHg 79%
    16:00 +7°C° 0 mm 6 m/S 734 mmHg 81%
    17:00 +5°C° 0.1 mm 6 m/S 735 mmHg 82%
    18:00 +5°C° 0.1 mm 6 m/S 735 mmHg 83%
    19:00 +4°C° 0.1 mm 6 m/S 736 mmHg 84%
    20:00 +4°C° 0.4 mm 6 m/S 736 mmHg 86%
    21:00 +4°C° 0.4 mm 6 m/S 737 mmHg 87%
    22:00 +4°C° 0.4 mm 6 m/S 737 mmHg 88%
    23:00 +4°C° 0.1 mm 6 m/S 738 mmHg 88%

    Morgen, 18 Juli, Donnerstag

    Zeit Temperatur Niederschläge Wind Luftdruck Luftfeuchtigkeit
    00:00 +3°C° 0.1 mm 5 m/S 739 mmHg 87%
    01:00 +3°C° 0.1 mm 5 m/S 739 mmHg 87%
    02:00 +3°C° 0 mm 5 m/S 740 mmHg 87%
    03:00 +3°C° 0 mm 5 m/S 740 mmHg 87%
    04:00 +3°C° 0 mm 5 m/S 741 mmHg 87%
    05:00 +3°C° 0 mm 4 m/S 741 mmHg 88%
    06:00 +3°C° 0 mm 4 m/S 742 mmHg 89%
    07:00 +2°C° 0 mm 3 m/S 742 mmHg 90%
    08:00 +3°C° 0 mm 3 m/S 743 mmHg 87%
    09:00 +5°C° 0 mm 2 m/S 743 mmHg 84%
    10:00 +6°C° 0 mm 2 m/S 743 mmHg 81%
    11:00 +7°C° 0 mm 2 m/S 742 mmHg 77%
    12:00 +8°C° 0 mm 3 m/S 742 mmHg 73%
    13:00 +9°C° 0 mm 3 m/S 741 mmHg 69%
    14:00 +9°C° 0 mm 3 m/S 741 mmHg 69%
    15:00 +9°C° 0 mm 3 m/S 741 mmHg 70%
    16:00 +9°C° 0 mm 3 m/S 740 mmHg 70%
    17:00 +8°C° 0 mm 3 m/S 739 mmHg 71%
    18:00 +8°C° 0 mm 3 m/S 739 mmHg 72%
    19:00 +6°C° 0 mm 4 m/S 738 mmHg 72%
    20:00 +6°C° 0.2 mm 4 m/S 738 mmHg 77%
    21:00 +6°C° 0.2 mm 4 m/S 738 mmHg 82%
    22:00 +7°C° 0.2 mm 5 m/S 738 mmHg 87%
    23:00 +6°C° 0.1 mm 4 m/S 739 mmHg 87%

    übermorgen, 19 Juli, Freitag

    Zeit Temperatur Niederschläge Wind Luftdruck Luftfeuchtigkeit
    00:00 +5°C° 0.1 mm 4 m/S 739 mmHg 87%
    01:00 +4°C° 0.1 mm 4 m/S 740 mmHg 88%
    02:00 +4°C° 0 mm 4 m/S 741 mmHg 88%
    03:00 +4°C° 0 mm 4 m/S 741 mmHg 88%
    04:00 +4°C° 0 mm 4 m/S 742 mmHg 88%
    05:00 +4°C° 0 mm 4 m/S 742 mmHg 88%
    06:00 +4°C° 0 mm 4 m/S 743 mmHg 88%
    07:00 +4°C° 0 mm 4 m/S 743 mmHg 88%
    08:00 +5°C° 0 mm 4 m/S 744 mmHg 84%
    09:00 +6°C° 0 mm 4 m/S 744 mmHg 81%
    10:00 +7°C° 0 mm 4 m/S 745 mmHg 78%
    11:00 +8°C° 0 mm 5 m/S 745 mmHg 73%
    12:00 +9°C° 0 mm 5 m/S 745 mmHg 68%
    13:00 +10°C° 0 mm 5 m/S 745 mmHg 64%
    14:00 +10°C° 0 mm 4 m/S 746 mmHg 65%
    15:00 +10°C° 0 mm 3 m/S 746 mmHg 67%
    16:00 +10°C° 0 mm 3 m/S 746 mmHg 69%
    17:00 +9°C° 0 mm 2 m/S 747 mmHg 75%
    18:00 +8°C° 0 mm 2 m/S 747 mmHg 81%
    19:00 +7°C° 0 mm 2 m/S 748 mmHg 87%
    20:00 +6°C° 0 mm 2 m/S 748 mmHg 88%
    21:00 +6°C° 0 mm 2 m/S 748 mmHg 89%
    22:00 +6°C° 0 mm 2 m/S 748 mmHg 90%
    23:00 +5°C° 0 mm 2 m/S 748 mmHg 90%

    20 Juli, Samstag

    Zeit Temperatur Niederschläge Wind Luftdruck Luftfeuchtigkeit
    00:00 +5°C° 0 mm 2 m/S 748 mmHg 90%
    01:00 +4°C° 0 mm 2 m/S 748 mmHg 90%
    02:00 +3°C° 0 mm 3 m/S 748 mmHg 91%
    03:00 +3°C° 0 mm 3 m/S 747 mmHg 91%
    04:00 +2°C° 0 mm 3 m/S 747 mmHg 92%
    05:00 +2°C° 0 mm 3 m/S 747 mmHg 91%
    06:00 +2°C° 0 mm 3 m/S 746 mmHg 90%
    07:00 +2°C° 0 mm 3 m/S 746 mmHg 90%
    08:00 +4°C° 0 mm 3 m/S 746 mmHg 83%
    09:00 +7°C° 0 mm 3 m/S 746 mmHg 76%
    10:00 +8°C° 0 mm 3 m/S 745 mmHg 69%
    11:00 +10°C° 0 mm 4 m/S 745 mmHg 65%
    12:00 +11°C° 0 mm 4 m/S 744 mmHg 62%
    13:00 +13°C° 0 mm 5 m/S 743 mmHg 59%
    14:00 +12°C° 0 mm 5 m/S 743 mmHg 61%
    15:00 +12°C° 0 mm 4 m/S 743 mmHg 63%
    16:00 +11°C° 0 mm 4 m/S 742 mmHg 65%
    17:00 +10°C° 0 mm 4 m/S 742 mmHg 70%
    18:00 +8°C° 0 mm 4 m/S 742 mmHg 75%
    19:00 +7°C° 0 mm 4 m/S 742 mmHg 80%
    20:00 +7°C° 0 mm 4 m/S 741 mmHg 80%
    21:00 +7°C° 0 mm 4 m/S 741 mmHg 81%
    22:00 +7°C° 0 mm 4 m/S 741 mmHg 82%
    23:00 +7°C° 0 mm 5 m/S 740 mmHg 81%

    21 Juli, Sonntag

    Zeit Temperatur Niederschläge Wind Luftdruck Luftfeuchtigkeit
    00:00 +7°C° 0 mm 5 m/S 739 mmHg 79%
    01:00 +8°C° 0 mm 5 m/S 738 mmHg 78%
    02:00 +7°C° 0 mm 5 m/S 737 mmHg 79%
    03:00 +7°C° 0 mm 5 m/S 736 mmHg 80%
    04:00 +7°C° 0 mm 5 m/S 735 mmHg 81%
    05:00 +7°C° 0.4 mm 5 m/S 736 mmHg 82%
    06:00 +7°C° 0.4 mm 6 m/S 736 mmHg 83%
    07:00 +7°C° 0.4 mm 6 m/S 736 mmHg 84%
    08:00 +7°C° 0 mm 6 m/S 737 mmHg 81%
    09:00 +7°C° 0 mm 6 m/S 738 mmHg 77%
    10:00 +5°C° 0 mm 6 m/S 739 mmHg 74%
    11:00 +7°C° 0 mm 6 m/S 739 mmHg 68%
    12:00 +8°C° 0 mm 7 m/S 739 mmHg 62%
    13:00 +8°C° 0 mm 7 m/S 740 mmHg 55%
    14:00 +8°C° 0 mm 6 m/S 740 mmHg 57%
    15:00 +8°C° 0 mm 5 m/S 740 mmHg 58%
    16:00 +8°C° 0 mm 4 m/S 741 mmHg 60%
    17:00 +7°C° 0 mm 4 m/S 741 mmHg 65%
    18:00 +7°C° 0 mm 4 m/S 742 mmHg 70%
    19:00 +7°C° 0 mm 3 m/S 742 mmHg 75%
    20:00 +7°C° 0 mm 3 m/S 742 mmHg 77%
    21:00 +7°C° 0 mm 3 m/S 742 mmHg 78%
    22:00 +8°C° 0 mm 3 m/S 743 mmHg 79%
    23:00 +8°C° 0 mm 3 m/S 743 mmHg 79%

    22 Juli, Montag

    Zeit Temperatur Niederschläge Wind Luftdruck Luftfeuchtigkeit
    00:00 +8°C° 0 mm 3 m/S 742 mmHg 80%
    01:00 +8°C° 0 mm 3 m/S 742 mmHg 80%
    02:00 +7°C° 0 mm 3 m/S 742 mmHg 82%
    03:00 +7°C° 0 mm 3 m/S 742 mmHg 84%
    04:00 +5°C° 0 mm 3 m/S 742 mmHg 86%
    05:00 +5°C° 0 mm 3 m/S 742 mmHg 85%
    06:00 +5°C° 0 mm 3 m/S 742 mmHg 85%
    07:00 +5°C° 0 mm 3 m/S 742 mmHg 84%
    08:00 +6°C° 0 mm 4 m/S 742 mmHg 76%
    09:00 +8°C° 0 mm 5 m/S 742 mmHg 69%
    10:00 +9°C° 0 mm 5 m/S 742 mmHg 61%
    11:00 +10°C° 0 mm 6 m/S 742 mmHg 57%
    12:00 +11°C° 0 mm 6 m/S 741 mmHg 53%
    13:00 +11°C° 0 mm 6 m/S 741 mmHg 49%
    14:00 +12°C° 0 mm 5 m/S 741 mmHg 52%
    15:00 +10°C° 0 mm 5 m/S 740 mmHg 56%
    16:00 +11°C° 0 mm 4 m/S 740 mmHg 59%
    17:00 +8°C° 0 mm 5 m/S 740 mmHg 64%
    18:00 +7°C° 0 mm 5 m/S 740 mmHg 69%
    19:00 +6°C° 0 mm 5 m/S 740 mmHg 75%
    20:00 +6°C° 0 mm 4 m/S 740 mmHg 77%
    21:00 +5°C° 0 mm 4 m/S 740 mmHg 79%
    22:00 +5°C° 0 mm 4 m/S 741 mmHg 81%
    23:00 +5°C° 0 mm 4 m/S 740 mmHg 81%
    Mehr zeigen